[ hide orbit diagram ]
For accurate long-term ephemerides, please instead use our Horizons system.This orbit viewer was implemented using two-body methods, and hence should not be used for determining accurate long-term trajectories (over several years or decades) or planetary encounter circumstances.
Orbital Elements at Epoch 2459200.5 (2020-Dec-17.0) TDB
Reference: JPL 24 (heliocentric ecliptic J2000)
Element | Value | Uncertainty (1-sigma) | Units |
e | .05836710347588905 | 4.3377e-08 | |
a | 3.150244984479583 | 2.5423e-08 | au |
q | 2.966374309496063 | 1.3694e-07 | au |
i | 9.931210349236084 | 4.9653e-06 | deg |
node | 230.5776785726863 | 2.5234e-05 | deg |
peri | 4.86247158303203 | 5.1091e-05 | deg |
M | 162.2588595977583 | 4.744e-05 | deg |
tp | 2458280.006261573619 (2018-Jun-10.50626157) | 0.00026506 | TDB |
period | 2042.278287022272 5.59 | 2.4722e-05 6.769e-08 | d yr |
n | .1762737244417827 | 2.1338e-09 | deg/d |
Q | 3.334115659463103 | 2.6907e-08 | au |
|
| | Orbit Determination Parameters
Additional Information
|
[ show covariance matrix ]
Physical Parameter Table
Parameter |
Symbol |
Value |
Units |
Sigma |
Reference |
Notes |
absolute magnitude |
H |
14.6 |
|
n/a |
MPO432253 |
|
diameter |
diameter |
6.262 |
km |
0.196 |
urn:nasa:pds:neowise_diameters_albedos::2.0[mainbelt] (http://adsabs.harvard.edu/abs/2011ApJ...741...68M) |
|
geometric albedo |
albedo |
0.071 |
|
0.009 |
urn:nasa:pds:neowise_diameters_albedos::2.0[mainbelt] (http://adsabs.harvard.edu/abs/2011ApJ...741...68M) |
|
|
70001 (1998 XB7) Discovered 1998-Dec-08 by Spacewatch at Kitt Peak |
Reference: 20031109/Numbers.arc | Last Updated: 2004-04-19 |
|
[ show close-approach data ]
|